This is the latest recevied weather packets stored in our database for station/object W5LND-10. If no packets are shown the sender has not sent any weather packets the latest 10 day(s).
| Time | Temp. | Humidity | Pressure | Rain* | Wind** | Luminosity | Snow |
|---|---|---|---|---|---|---|---|
| 1777730779 | 14.44° C | 71% | 1022.5 hPa | 0 mm | - | 485 W/m² | - |
| 1777730479 | 13.89° C | 73% | 1022.5 hPa | 0 mm | - | 464 W/m² | - |
| 1777730179 | 13.89° C | 76% | 1022.5 hPa | 0 mm | - | 445 W/m² | - |
| 1777729879 | 13.33° C | 78% | 1022.4 hPa | 0 mm | - | 425 W/m² | - |
| 1777729579 | 13.33° C | 80% | 1022.4 hPa | 0 mm | - | 411 W/m² | - |
| 1777729279 | 13.33° C | 82% | 1022.3 hPa | 0 mm | - | 313 W/m² | - |
| 1777728979 | 12.78° C | 82% | 1022.3 hPa | 0 mm | - | 250 W/m² | - |
| 1777728681 | 12.78° C | 82% | 1022.2 hPa | 0 mm | - | 299 W/m² | - |
| 1777728379 | 12.78° C | 83% | 1022.1 hPa | 0 mm | - | 272 W/m² | - |
| 1777728079 | 12.22° C | 83% | 1022.1 hPa | 0 mm | - | 334 W/m² | - |
| 1777727779 | 12.22° C | 83% | 1022 hPa | 0 mm | - | 251 W/m² | - |
| 1777727479 | 12.22° C | 83% | 1022 hPa | 0 mm | - | 125 W/m² | - |
| 1777727179 | 12.22° C | 84% | 1022 hPa | 0 mm | - | 113 W/m² | - |
| 1777726879 | 12.22° C | 84% | 1021.9 hPa | 0 mm | - | 100 W/m² | - |
| 1777726579 | 12.22° C | 84% | 1021.8 hPa | 0 mm | - | 193 W/m² | - |
| 1777726279 | 12.22° C | 84% | 1021.9 hPa | 0 mm | - | 70 W/m² | - |
| 1777725979 | 11.67° C | 84% | 1021.8 hPa | 0 mm | - | 107 W/m² | - |
| 1777725679 | 11.67° C | 84% | 1021.8 hPa | 0 mm | - | 113 W/m² | - |
| 1777725379 | 11.67° C | 84% | 1021.6 hPa | 0 mm | - | 25 W/m² | - |
| 1777725079 | 11.67° C | 84% | 1021.6 hPa | 0 mm | - | 28 W/m² | - |
| 1777724779 | 11.67° C | 83% | 1021.6 hPa | 0 mm | - | 30 W/m² | - |
| 1777724479 | 11.67° C | 83% | 1021.4 hPa | 0 mm | - | 37 W/m² | - |
| 1777724179 | 11.67° C | 83% | 1021.4 hPa | 0 mm | - | 26 W/m² | - |
| 1777723879 | 11.67° C | 83% | 1021.4 hPa | 0 mm | - | 9 W/m² | - |
| 1777723579 | 11.67° C | 83% | 1021.3 hPa | 0 mm | - | 7 W/m² | - |
* Rain latest hour (hover to see other rain measurements)
** Current wind speed in m/s (hover to see current wind gust speed)